Inquirer Daily News

Weather

Get conditions and forecasts for any City, State, ZIP code or Country:  
Trenton, NJ
on Monday, March 26, 2012

Monday
Previous Day Next Day
Daily Summary
 ActualAverageRecord
Temperature
Mean Temperature °F 44°F  
Max Temperature 56°F 54°F 79°F (1921)
Min Temperature 36°F 34°F 18°F (1866)
Degree Days
Heating Degree Days 19 21  
Month to date heating degree days 307 613  
Since 1 July heating degree days 3220 4427  
Cooling Degree Days 0 0  
Month to date cooling degree days 11 0  
Year to date cooling degree days 11 0  
Moisture
Dew Point 26°F   
Average Humidity 53    
Maximum Humidity 86    
Minimum Humidity 20    
Precipitation
Precipitation 0.00 in 0.13 in 1.52 in (1978)
Month to date precipitation 0.63 3.28  
Year to date precipitation 5.70 8.75  
Wind
Wind Speed 14 mph   
Max Wind Speed 30 mph   
Max Gust Speed 40 mph   
Visibility 10 miles   
Events     

Key: T is trace of precipitation, MM is missing value
Source: NWS Daily Summary
Time(EDT)TemperatureDew PointHumidity Pressure Visibility Wind DirectionWind SpeedGust SpeedPrecipitationEvents Conditions
12:53 AM 48.9°F 44.1°F 83% 29.74 in 10.0 miles Calm Calm - N/A   Partly Cloudy
1:53 AM 50.0°F 45.0°F 83% 29.74 in 9.0 miles North 4.6 mph - N/A   Overcast
2:53 AM 48.9°F 44.1°F 83% 29.72 in 10.0 miles Calm Calm - N/A   Clear
3:53 AM 46.0°F 41.0°F 83% 29.70 in 9.0 miles NW 4.6 mph - N/A   Clear
4:53 AM 48.0°F 42.1°F 80% 29.70 in 10.0 miles WNW 3.5 mph - N/A   Clear
5:53 AM 46.0°F 42.1°F 86% 29.71 in 6.0 miles West 3.5 mph - N/A   Clear
6:53 AM 50.0°F 44.1°F 80% 29.72 in 10.0 miles NW 5.8 mph - N/A   Clear
7:53 AM 53.1°F 42.1°F 66% 29.73 in 10.0 miles NNW 4.6 mph - N/A   Clear
8:53 AM 55.4°F 39.2°F 54% 29.77 in 10.0 miles North 19.6 mph 25.3 mph N/A   Clear
9:53 AM 54.0°F 33.1°F 45% 29.80 in 10.0 miles North 24.2 mph 33.4 mph N/A   Clear
10:53 AM 55.9°F 30.9°F 39% 29.81 in 10.0 miles North 17.3 mph 31.1 mph N/A   Clear
11:53 AM 53.6°F 26.6°F 35% 29.85 in 10.0 miles North 25.3 mph 32.2 mph N/A   Clear
12:53 PM 52.0°F 23.0°F 32% 29.85 in 10.0 miles North 20.7 mph 35.7 mph 0.00 in   Clear
1:53 PM 52.0°F 18.0°F 26% 29.86 in 10.0 miles North 21.9 mph 31.1 mph N/A   Clear
2:53 PM 51.1°F 16.0°F 25% 29.88 in 10.0 miles North 25.3 mph 40.3 mph N/A   Clear
3:53 PM 50.0°F 12.9°F 23% 29.89 in 10.0 miles North 24.2 mph 36.8 mph N/A   Clear
4:53 PM 50.0°F 10.0°F 20% 29.91 in 10.0 miles North 24.2 mph 38.0 mph N/A   Clear
5:53 PM 48.0°F 10.0°F 22% 29.94 in 10.0 miles North 20.7 mph 38.0 mph N/A   Clear
6:53 PM 45.0°F 9.0°F 23% 29.98 in 10.0 miles North 13.8 mph 26.5 mph N/A   Clear
7:53 PM 42.1°F 10.0°F 27% 30.02 in 10.0 miles North 16.1 mph 28.8 mph N/A   Clear
8:53 PM 39.9°F 10.0°F 29% 30.08 in 10.0 miles North 13.8 mph 21.9 mph N/A   Clear
9:53 PM 37.9°F 8.1°F 29% 30.12 in 10.0 miles North 13.8 mph 20.7 mph N/A   Clear
10:53 PM 37.0°F 8.1°F 30% 30.14 in 10.0 miles North 11.5 mph 17.3 mph N/A   Clear
11:53 PM 37.0°F 8.1°F 30% 30.15 in 10.0 miles North 11.5 mph 18.4 mph N/A   Clear
Astronomy
Sunrise:06:52 AM (EDT) Moon Rise:08:39 AM (EDT)3/26
Sunset:07:18 PM (EDT) Moon Set:11:26 PM (EDT)3/26
Moon Phase
Mar. 26 Mar. 30 Apr. 06 Apr. 13 Apr. 21

Copyright © 2014 The Weather Underground, Inc.